Regional Weather Roundup
Issued by NWS

Home | Current Version | Previous Version | Text Only | Print | Product List | Glossary Off
Versions: 1 2 3 4 5 6 7 8 9 10 11 12 13 14 15 16 17 18 19 20 21 22 23 24 25 26 27 28 29 30 31 32 33 34 35 36 37 38 39 40 41 42 43 44 45 46 47 48 49 50

000
ASUS43 KDTX 202210
RWRMI
MICHIGAN HOURLY REGIONAL WEATHER ROUNDUP
NATIONAL WEATHER SERVICE DETROIT/PONTIAC MI
600 PM EDT MON APR 20 2015

NOTE: "FAIR" INDICATES FEW OR NO CLOUDS BELOW 12,000 FEET WITH NO
SIGNIFICANT WEATHER AND/OR OBSTRUCTION TO VISIBILITY.

MIZ047>049-052>055-059>063-066>070-074>076-081>083-202300-
SOUTHEAST LOWER MICHIGAN

CITY           SKY/WX    TMP DP  RH WIND       PRES   REMARKS
ADRIAN         CLOUDY    49  41  74 W20G28    29.49R
ALMA           CLOUDY    45  40  85 SW15G29   29.39R
ANN ARBOR      LGT RAIN  49  45  86 W17G26    29.45R
BAD AXE        CLOUDY    52  45  77 SW24G33   29.32R
DETROIT CITY   LGT RAIN  52  44  74 W22G35    29.42R
DETROIT        CLOUDY    54  43  66 SW24G33   29.44R
FLINT          CLOUDY    51  42  71 W20G35    29.40R
GROSSE ILE     CLOUDY    54  43  66 SW17G31   29.43R
HILLSDALE      LGT RAIN  47  44  90 W16G26    29.48R
HOWELL         CLOUDY    47  45  95 W22G28    29.43R

CITY           SKY/WX    TMP DP  RH WIND       PRES   REMARKS
JACKSON        LGT RAIN  45  43  93 W13       29.46R FOG
LAMBERTVILLE   CLOUDY    52  43  71 W20G31    29.50R
LANSING        CLOUDY    45  38  76 W26G32    29.45R
LAPEER         NOT AVBL
MASON          CLOUDY    46  38  76 W15G29    29.45R
MONROE         CLOUDY    54  45  71 W28G41    29.45R
MT. CLEMENS    CLOUDY    54  45  71 W23G30    29.38R
PONTIAC        CLOUDY    51  43  74 SW15G33   29.39R
PORT HOPE        N/A     54  46  74 SW18G31   29.27R
PORT HURON     CLOUDY    55  45  67 W14G25    29.39R
TRI CITIES     CLOUDY    49  41  74 SW23G39   29.35R
YPSILANTI      LGT RAIN  54  46  74 W28G33    29.44R
$$
MIZ043>046-050>051-056>058-064>065-071>073-077>080-202300-
SOUTHWEST LOWER MICHIGAN

CITY           SKY/WX    TMP DP  RH WIND       PRES   REMARKS
BATTLE CREEK   LGT RAIN  45  41  86 W20G28    29.48R
BENTON HARBOR  CLOUDY    42  39  89 W18G25    29.52R
BIG RAPIDS     LGT RAIN  41  38  90 W17G25    29.37R
COLDWATER      CLOUDY    45  41  88 W17G25    29.49R FOG
HOLLAND        LGT RAIN  43  39  86 W18       29.48R
GRAND RAPIDS   LGT RAIN  42  40  92 W23G32    29.45R
KALAMAZOO      LGT RAIN  45  40  82 W16G24    29.50R
MARSHALL       LGT RAIN  43  41  93 W15G26    29.48R
MUSKEGON       LGT RAIN  41  37  86 SW10      29.45R
$$
MIZ016>042-202300-
NORTHERN LOWER MICHIGAN

CITY           SKY/WX    TMP DP  RH WIND       PRES   REMARKS
ALPENA         CLOUDY    50  42  74 SW14G25   29.23R
BEAVER ISLAND  RAIN      38  38  97 SW12      29.23R
BELLAIRE       LGT RAIN  43  40  91 W7        29.28R
CADILLAC       RAIN      40  38  92 SW15G23   29.31R
CHARLEVOIX     CLOUDY    39  39 100 W20       29.28R FOG
FRANKFORT      LGT RAIN  41  36  81 W10G17    29.33R
GAYLORD        LGT RAIN  41  41 100 SW15      29.25R FOG
GRAYLING       CLOUDY    43  40  89 SW8G16    29.27R
HARBOR SPRINGS CLOUDY    38  37  97 W10G16    29.24R
HOUGHTON LAKE  CLOUDY    45  40  82 SW18G25   29.29R
MANISTEE       CLOUDY    39  36  87 W15       29.38R
OSCODA         CLOUDY    54  43  66 SW29G36   29.24R
PELLSTON       CLOUDY    41  39  93 W14G22    29.23R
TRAVERSE CITY  LGT RAIN  42  38  85 W22G28    29.29R
$$
MIZ007>008-015-202300-
EASTERN UPPER MICHIGAN

CITY           SKY/WX    TMP DP  RH WIND       PRES   REMARKS
KINROSS        CLOUDY    39  39 100 SW7G18    29.16R
MACKINAC ISLAN CLOUDY    38  38 100 SW12G24   29.19R
NEWBERRY       LGT RAIN  36  35  97 W17G25    29.19R
S. S. MARIE    CLOUDY    44  41  89 SW13      29.14R
$$
MIZ004>006-011>014-085-202300-
CENTRAL UPPER MICHIGAN

CITY           SKY/WX    TMP DP  RH WIND       PRES   REMARKS
MANISTIQUE     LGT RAIN  40  39  97 W16       29.22R
ESCANABA       CLOUDY    37  34  87 W15       29.26R
MENOMINEE      CLOUDY    39  34  81 W10G17    29.31R
SAWYER-GWINN   LGT SNOW  34  32  93 W13G18    29.22R
$$
MIZ001>003-009>011-084-202300-
WESTERN UPPER MICHIGAN

CITY           SKY/WX    TMP DP  RH WIND       PRES   REMARKS
IRON MOUNTAIN  LGT RAIN  38  34  85 W12G20    29.27R
HOUGHTON       SNOW      33  31  92 W24G36    29.21R VSB 1/2
COPPER HARBOR    N/A     35  32  88 NW16G26   29.17R
IRONWOOD       CLOUDY    37  30  75 W15       29.30R
$$

ABBREVIATIONS USED IN REMARKS
   TC - TEMPERATURE IN CELSIUS
  WCI - WIND CHILL INDEX
   HX - HEAT INDEX
  VSB - VISIBILITY




USA.gov is the U.S. government's official web portal to all federal, state and local government web resources and services.